Location: Kuppenheim
(48.8299°N, 8.2568°E)
Time: 07:43:11
(UTC+00:00)

N. Korean satellite - Pass Details

Date: 30 November 2022
Orbit: 407 x 442 km, 97.3° (Epoch: 04 February)

Event Time Altitude Azimuth Distance (km) Brightness Sun altitude
Rises 04:31:38 0° 17° (NNE) 2,530 10.3 -23.2°
Reaches altitude 10° 04:33:46 10° 24° (NNE) 1,646 9.4 -22.9°
Maximum altitude 04:37:12 47° 99° (E) 630 7.5 -22.3°
Drops below altitude 10° 04:40:34 10° 175° (S) 1,617 9.4 -21.7°
Sets 04:42:39 0° 181° (S) 2,480 10.3 -21.4°
